Glenwood, MN

7:01 AM CDT on April 26, 2017 (GMT -0500)
Glenwood Municipal

Weather History for KGHW - December, 2011

Change the Weather History Date:

Monday, December 5, 2011

  Actual Average Record
Temperature  
Mean Temperature 11 °F -  
Max Temperature 19 °F 28 °F 48 °F (1990)
Min Temperature 3 °F 12 °F -13 °F (1955)
Degree Days  
Heating Degree Days 54    
Moisture  
Dew Point 6 °F    
Average Humidity 73    
Maximum Humidity 79    
Minimum Humidity 58    
Precipitation  
Precipitation 0.00 in - - ()
Sea Level Pressure  
Sea Level Pressure 30.45 in    
Wind  
Wind Speed 7 mph (NNW)    
Max Wind Speed 12 mph    
Max Gust Speed 17 mph    
Visibility 9 miles    
Events Snow    
Averages and records for this station are not official NWS values.
T = Trace of Precipitation, MM = Missing Value Source: NWS Daily Summary

Daily Weather History Graph

Daily Weather History Graph

Search for Another Location

Airport or City:

Trip Planner

Search our weather history database for the weather conditions in past years. The results will help you decide how hot, cold, wet, or windy it might be!

Date:

Astronomy

Dec. 05, 2011 Rise Set
Actual Time 7:45 AM CST 4:37 PM CST
Civil Twilight 7:11 AM CST 5:11 PM CST
Nautical Twilight 6:34 AM CST 5:48 PM CST
Astronomical Twilight 5:58 AM CST 6:24 PM CST
Moon 1:44 PM CST (12/5) 2:58 AM CST (12/5)
Length of Visible Light 9h 59m
Length of Day
8h 52m
Waxing Gibbous, 80% of the Moon is Illuminated
Dec 5
Waxing Gibbous
Dec 10
Full
Dec 17
Last Quarter
Dec 24
New
Jan 1
First Quarter

Hourly Weather History & Observations

Time (CST) Temp. Windchill Dew Point Humidity Pressure Visibility Wind Dir Wind Speed Gust Speed Precip Events Conditions
12:14 AM 17.6 °F 8.2 °F 10.4 °F 73% 30.36 in 10.0 mi North 6.9 mph - N/A Snow Light Snow
12:34 AM 17.6 °F 8.2 °F 10.4 °F 73% 30.36 in 10.0 mi NNW 6.9 mph - N/A Snow Light Snow
12:54 AM 19.4 °F 9.5 °F 10.4 °F 68% 30.36 in 10.0 mi NNW 8.1 mph - N/A Snow Light Snow
1:14 AM 19.4 °F 11.5 °F 10.4 °F 68% 30.36 in 10.0 mi North 5.8 mph - N/A   Overcast
1:34 AM 17.6 °F 7.3 °F 12.2 °F 79% 30.36 in 10.0 mi NW 8.1 mph - N/A Snow Light Snow
1:54 AM 17.6 °F 9.3 °F 12.2 °F 79% 30.36 in 7.0 mi NNW 5.8 mph - N/A Snow Light Snow
2:14 AM 17.6 °F 7.3 °F 12.2 °F 79% 30.37 in 7.0 mi North 8.1 mph - N/A Snow Light Snow
2:34 AM 17.6 °F 7.3 °F 10.4 °F 73% 30.37 in 10.0 mi North 8.1 mph - N/A Snow Light Snow
2:53 AM 17.6 °F 7.3 °F 10.4 °F 73% 30.38 in 10.0 mi North 8.1 mph - N/A Snow Light Snow
3:14 AM 17.6 °F 5.7 °F 10.4 °F 73% 30.39 in 10.0 mi North 10.4 mph - N/A Snow Light Snow
3:34 AM 15.8 °F 3.4 °F 10.4 °F 79% 30.38 in 10.0 mi North 10.4 mph - N/A Snow Light Snow
3:54 AM 15.8 °F 3.4 °F 10.4 °F 79% 30.38 in 10.0 mi North 10.4 mph - N/A Snow Light Snow
4:14 AM 15.8 °F 5.1 °F 10.4 °F 79% 30.39 in 10.0 mi North 8.1 mph - N/A Snow Light Snow
4:33 AM 15.8 °F 3.4 °F 10.4 °F 79% 30.41 in 10.0 mi North 10.4 mph - N/A Snow Light Snow
4:54 AM 15.8 °F 4.2 °F 8.6 °F 73% 30.41 in 7.0 mi North 9.2 mph - N/A Snow Light Snow
5:14 AM 15.8 °F 3.4 °F 8.6 °F 73% 30.41 in 10.0 mi North 10.4 mph - N/A Snow Light Snow
5:34 AM 15.8 °F 6.1 °F 8.6 °F 73% 30.43 in 10.0 mi North 6.9 mph - N/A Snow Light Snow
5:54 AM 15.8 °F 8.6 °F 8.6 °F 73% 30.43 in 10.0 mi North 4.6 mph - N/A Snow Light Snow
6:34 AM 15.8 °F 7.2 °F 8.6 °F 73% 30.44 in 7.0 mi North 5.8 mph - N/A Snow Light Snow
6:54 AM 15.8 °F 8.6 °F 8.6 °F 73% 30.44 in 7.0 mi North 4.6 mph - N/A Snow Light Snow
7:13 AM 15.8 °F 10.2 °F 10.4 °F 79% 30.45 in 7.0 mi North 3.5 mph - N/A Snow Light Snow
7:34 AM 15.8 °F 8.6 °F 8.6 °F 73% 30.45 in 5.0 mi North 4.6 mph - N/A Snow Light Snow
7:54 AM 15.8 °F 6.1 °F 10.4 °F 79% 30.45 in 2.0 mi NNW 6.9 mph - N/A Snow Light Snow
8:13 AM 15.8 °F 3.4 °F 10.4 °F 79% 30.45 in 7.0 mi NNW 10.4 mph - N/A Snow Light Snow
8:34 AM 15.8 °F 5.1 °F 8.6 °F 73% 30.47 in 10.0 mi NNW 8.1 mph - N/A   Overcast
8:54 AM 15.8 °F 3.4 °F 8.6 °F 73% 30.48 in 7.0 mi NNW 10.4 mph - N/A Snow Light Snow
9:14 AM 15.8 °F 5.1 °F 8.6 °F 73% 30.48 in 7.0 mi NNW 8.1 mph - N/A Snow Light Snow
9:34 AM 15.8 °F 4.2 °F 8.6 °F 73% 30.49 in 5.0 mi NNW 9.2 mph - N/A Snow Light Snow
10:13 AM 14.0 °F 0.5 °F 6.8 °F 73% 30.50 in 10.0 mi NW 11.5 mph - N/A Snow Light Snow
10:34 AM 14.0 °F 0.5 °F 6.8 °F 73% 30.51 in 10.0 mi NW 11.5 mph - N/A Snow Light Snow
10:53 AM 14.0 °F 1.2 °F 6.8 °F 73% 30.51 in 7.0 mi NW 10.4 mph - N/A Snow Light Snow
11:14 AM 14.0 °F 1.2 °F 6.8 °F 73% 30.51 in 10.0 mi WNW 10.4 mph - N/A Snow Light Snow
11:33 AM 14.0 °F 1.2 °F 6.8 °F 73% 30.49 in 7.0 mi NW 10.4 mph - N/A Snow Light Snow
11:54 AM 14.0 °F 1.2 °F 6.8 °F 73% 30.49 in 7.0 mi NNW 10.4 mph - N/A Snow Light Snow
12:14 PM 14.0 °F 2.9 °F 6.8 °F 73% 30.48 in 10.0 mi NW 8.1 mph 16.1 mph N/A Snow Light Snow
12:33 PM 14.0 °F 2.0 °F 6.8 °F 73% 30.48 in 10.0 mi NNW 9.2 mph 17.3 mph N/A Snow Light Snow
12:54 PM 14.0 °F 2.9 °F 6.8 °F 73% 30.47 in 10.0 mi North 8.1 mph - N/A Snow Light Snow
1:14 PM 14.0 °F 1.2 °F 6.8 °F 73% 30.47 in 7.0 mi NNW 10.4 mph - N/A Snow Light Snow
1:34 PM 14.0 °F 1.2 °F 6.8 °F 73% 30.47 in 7.0 mi NNW 10.4 mph - N/A Snow Light Snow
2:14 PM 14.0 °F 3.9 °F 3.2 °F 62% 30.47 in 10.0 mi North 6.9 mph - N/A   Mostly Cloudy
2:34 PM 14.0 °F 5.1 °F 3.2 °F 62% 30.46 in 10.0 mi NW 5.8 mph - N/A   Scattered Clouds
2:54 PM 14.0 °F 2.9 °F 3.2 °F 62% 30.47 in 10.0 mi WNW 8.1 mph - N/A   Mostly Cloudy
3:14 PM 15.8 °F 8.6 °F 3.2 °F 58% 30.47 in 10.0 mi NNW 4.6 mph 9.2 mph N/A   Mostly Cloudy
3:34 PM 14.0 °F 1.2 °F 3.2 °F 62% 30.47 in 10.0 mi NW 10.4 mph - N/A   Scattered Clouds
4:14 PM 12.2 °F 0.7 °F 3.2 °F 67% 30.47 in 10.0 mi NW 8.1 mph - N/A   Clear
4:34 PM 12.2 °F 1.7 °F 3.2 °F 67% 30.48 in 10.0 mi WNW 6.9 mph - N/A   Clear
4:53 PM 10.4 °F -2.4 °F 1.4 °F 67% 30.48 in 10.0 mi NW 9.2 mph - N/A   Clear
5:14 PM 8.6 °F -3.7 °F 1.4 °F 73% 30.48 in 10.0 mi NW 8.1 mph - N/A   Clear
5:34 PM 8.6 °F -2.6 °F 1.4 °F 73% 30.48 in 10.0 mi WNW 6.9 mph - N/A   Clear
5:54 PM 6.8 °F -5.9 °F -0.4 °F 72% 30.48 in 10.0 mi WNW 8.1 mph - N/A   Clear
6:13 PM 6.8 °F -4.8 °F -0.4 °F 72% 30.48 in 10.0 mi WNW 6.9 mph - N/A   Clear
6:34 PM 6.8 °F -2.0 °F -0.4 °F 72% 30.48 in 10.0 mi NW 4.6 mph - N/A   Clear
6:54 PM 6.8 °F -0.1 °F -0.4 °F 72% 30.48 in 10.0 mi NW 3.5 mph - N/A   Clear
7:14 PM 6.8 °F - -0.4 °F 72% 30.48 in 10.0 mi Calm Calm - N/A   Clear
7:34 PM 5.0 °F - -0.4 °F 78% 30.47 in 10.0 mi Calm Calm - N/A   Clear
7:54 PM 5.0 °F - -0.4 °F 78% 30.47 in 10.0 mi Calm Calm - N/A   Clear
8:14 PM 5.0 °F - -0.4 °F 78% 30.47 in 10.0 mi Calm Calm - N/A   Clear
8:33 PM 3.2 °F - -2.2 °F 78% 30.47 in 10.0 mi Calm Calm - N/A   Clear
8:54 PM 3.2 °F -7.8 °F -2.2 °F 78% 30.46 in 10.0 mi West 5.8 mph - N/A   Clear
9:13 PM 3.2 °F -4.2 °F -2.2 °F 78% 30.46 in 10.0 mi WNW 3.5 mph - N/A   Clear
9:34 PM 3.2 °F -9.1 °F -2.2 °F 78% 30.46 in 10.0 mi WNW 6.9 mph - N/A   Clear
9:54 PM 3.2 °F -9.1 °F -2.2 °F 78% 30.46 in 10.0 mi WNW 6.9 mph - N/A   Clear
10:14 PM 3.2 °F -6.2 °F -2.2 °F 78% 30.46 in 10.0 mi West 4.6 mph - N/A   Clear
10:34 PM 3.2 °F - -2.2 °F 78% 30.45 in 10.0 mi Calm Calm - N/A   Clear
10:54 PM 3.2 °F - -2.2 °F 78% 30.45 in 10.0 mi Calm Calm - N/A   Clear
11:14 PM 3.2 °F - -4.0 °F 72% 30.45 in 10.0 mi Calm Calm - N/A   Clear
11:34 PM 3.2 °F - -2.2 °F 78% 30.45 in 10.0 mi Calm Calm - N/A   Clear
11:54 PM 3.2 °F - -4.0 °F 72% 30.45 in 10.0 mi Calm Calm - N/A   Clear